Location: Casilda
(33.0440°S, 61.1680°W)
Time: 14:49:07
(UTC-03:00)

Envisat - Visible Passes

Search period start: 23 July 2018 00:00
Search period end: 02 August 2018 00:00
Orbit: 764 x 766 km, 98.2° (Epoch: 22 July)

Date Brightness Start Highest point End Pass type
(mag) Time Alt. Az. Time Alt. Az. Time Alt. Az.
24 Jul 5.7 07:09:11 10° ENE 07:12:16 16° ESE 07:15:22 10° SSE visible
27 Jul 5.8 06:59:07 10° E 07:01:14 13° ESE 07:03:23 10° SE visible
29 Jul 5.4 07:22:34 10° ENE 07:26:30 23° ESE 07:30:27 10° SSE visible
01 Aug 5.6 07:12:05 10° ENE 07:15:27 18° ESE 07:18:50 10° SSE visible
